Regional Weather Roundup
Issued by NWS

Home | Current Version | Previous Version | Text Only | Print | Product List | Glossary On
Versions: 1 2 3 4 5 6 7 8 9 10 11 12 13 14 15 16 17 18 19 20 21 22 23 24 25 26 27 28 29 30 31 32 33 34 35 36 37 38 39 40 41 42 43 44 45 46 47 48 49 50
317
ASUS42 KFFC 251503
RWRGA
WEATHER ROUNDUP FOR GEORGIA
NATIONAL WEATHER SERVICE PEACHTREE CITY GA
1100 AM EDT WED MAY 25 2016

NOTE: "FAIR" INDICATES FEW OR NO CLOUDS BELOW 12,000 FEET WITH NO
SIGNIFICANT WEATHER AND/OR OBSTRUCTIONS TO VISIBILITY.

* = USE WITH CAUTION. THE STATIONS MARKED WITH AN ASTERISK MAY NOT
REPORT WEATHER SUCH AS PRECIPITATION, FOG, OR THUNDER AND ARE NOT
QUALITY CONTROLLED BY NWS.

THE REMARK "TC" DENOTES TEMPERATURE READING IN DEGREES CELSIUS.

GAZ001>058-251600-
NORTH GEORGIA

CITY           SKY/WX    TMP DP  RH WIND       PRES   REMARKS
ATLANTA        MOSUNNY   80  54  40 SW9       30.26R
ATHENS         SUNNY     80  60  50 VRB3      30.27R
CHAMBLEE       SUNNY     82  53  36 SW9       30.26S
PEACHTREE CITY SUNNY     81  55  40 VRB6      30.26S
ROME           CLOUDY    77  58  51 CALM      30.22F
WEST ATLANTA   SUNNY     79  54  41 VRB5      30.25S
GAINESVILLE    SUNNY     77  55  46 SW6       30.29S
CARTERSVILLE   SUNNY     80  58  46 SE6       30.24F


CITY           SKY/WX    TMP DP  RH WIND       PRES   REMARKS
DALTON*        CLOUDY    73  59  60 SE5       30.24S
LAWRENCEVILLE* SUNNY     79  57  47 SW7       30.27S
MARIETTA       MOSUNNY   79  56  46 S5        30.26R
KENNESAW*      SUNNY     79  55  44 S6        30.22S
CANTON*        SUNNY     73  45  35 CALM      30.28S
BLAIRSVILLE*     N/A    N/A N/A N/A MISG      30.29F
$$

GAZ059>098-102>109-251600-
CENTRAL GEORGIA

CITY           SKY/WX    TMP DP  RH WIND       PRES   REMARKS
AUGUSTA-BUSH   SUNNY     81  62  52 VRB3      30.24R
AUGUSTA-DANIEL SUNNY    N/A N/A N/A MISG      30.26R
COLUMBUS       SUNNY     77  58  51 CALM      30.24R
MACON          SUNNY     81  62  52 W7        30.25R
ROBINS AFB     SUNNY     81  63  54 VRB6      30.25R


CITY           SKY/WX    TMP DP  RH WIND       PRES   REMARKS
LAGRANGE*      SUNNY     82  63  52 CALM      30.26R
SYLVANIA*      SUNNY     83  62  49 SW6       30.26R
MILLEDGEVILLE* SUNNY     79  63  57 W5        30.26R
$$

GAZ099>101-110>166-251600-
SOUTH GEORGIA

CITY           SKY/WX    TMP DP  RH WIND       PRES   REMARKS
SAVANNAH       MOSUNNY   82  62  50 VRB7      30.25S
VALDOSTA       SUNNY     82  61  48 S10       30.22F
ALMA           SUNNY     82  60  47 SW9       30.24S
ST SIMONS      SUNNY     80  67  64 SE8       30.25R
FT STEWART     SUNNY     80  64  56 S2        30.23S
ALBANY         MOSUNNY   82  62  50 S8        30.25S
HUNTER AFB     SUNNY     82  65  56 W8        30.23S
MOODY AFB      SUNNY     83  60  45 S9        30.21F
BRUNSWICK      SUNNY     84  63  48 S5        30.25S


CITY           SKY/WX    TMP DP  RH WIND       PRES   REMARKS
BAINBRIDGE*    SUNNY     81  68  65 SE7       30.22S
MOULTRIE*      SUNNY     81  61  50 S7        30.23F
VIDALIA*       SUNNY     81  61  50 SW8       30.25S
WAYCROSS*      SUNNY     82  61  49 SW5       30.25R
DOUGLAS*       SUNNY     82  57  42 S6        30.25F
$$




USA.gov is the U.S. government's official web portal to all federal, state and local government web resources and services.